VTCCS VOMM-VOAR

Flight info

Callsign VTCCS
Flight time N/A
Altitude 3500
Route MMV
Aircraft H160/M-SDFHY/C

Departure

Time 2026-04-26 05:42
Airport Chennai International Airport (VOMM)

Arrival

Time N/A
Airport INS Rajali / Arakkonam Naval Air Station (VOAR)
Time Latitude Longitude Altitude Speed Heading
2026-04-26 05:22 12.98572 80.16488 50 ft 0 kts 338°
2026-04-26 05:33 12.98576 80.16484 50 ft 0 kts 262°
2026-04-26 05:33 12.98575 80.16485 54 ft 2 kts 130°
2026-04-26 05:33 12.98590 80.16511 54 ft 12 kts 242°
2026-04-26 05:34 12.98652 80.16518 52 ft 32 kts 22°
2026-04-26 05:34 12.98721 80.16598 56 ft 5 kts 82°
2026-04-26 05:34 12.98768 80.16628 112 ft 20 kts 114°
2026-04-26 05:34 12.98828 80.16686 51 ft 0 kts 44°
2026-04-26 05:35 12.98837 80.16679 51 ft 0 kts 279°
2026-04-26 05:35 12.98846 80.16693 48 ft 9 kts 21°
2026-04-26 05:35 12.98806 80.16693 50 ft 0 kts 194°
2026-04-26 05:36 12.98818 80.16667 49 ft 0 kts 219°
2026-04-26 05:36 12.98839 80.16685 51 ft 0 kts 356°
2026-04-26 05:36 12.98862 80.16687 160 ft 21 kts 278°
2026-04-26 05:36 12.98895 80.16784 510 ft 43 kts 142°
2026-04-26 05:37 12.98932 80.17109 50 ft 30 kts 107°
2026-04-26 05:37 12.99003 80.17185 68 ft 17 kts 225°
2026-04-26 05:37 12.99026 80.17216 49 ft 1 kts
2026-04-26 05:37 12.99032 80.17214 50 ft 2 kts
2026-04-26 05:38 12.99050 80.17207 46 ft 0 kts 306°
2026-04-26 05:40 12.99069 80.17212 48 ft 1 kts 250°
2026-04-26 05:41 12.99082 80.17222 85 ft 10 kts 287°
2026-04-26 05:41 12.99149 80.17209 48 ft 0 kts 231°
2026-04-26 05:41 12.99080 80.17059 293 ft 44 kts 222°
2026-04-26 05:42 12.98961 80.16702 524 ft 49 kts 230°
2026-04-26 05:42 12.98820 80.16357 901 ft 55 kts 248°
2026-04-26 05:42 12.98650 80.15957 1162 ft 64 kts 226°
2026-04-26 05:42 12.98432 80.15618 1377 ft 54 kts 202°
2026-04-26 05:43 12.98194 80.15338 1578 ft 59 kts 206°
2026-04-26 05:43 12.98063 80.14982 1885 ft 64 kts 272°
2026-04-26 05:43 12.98330 80.14632 2128 ft 59 kts 279°
2026-04-26 05:43 12.98530 80.14169 2246 ft 75 kts 275°
2026-04-26 05:44 12.98638 80.13643 2279 ft 79 kts 269°
2026-04-26 05:44 12.98686 80.13102 2426 ft 66 kts 261°
2026-04-26 05:44 12.98704 80.12636 2507 ft 70 kts 262°
2026-04-26 05:44 12.98803 80.12158 2544 ft 79 kts 315°
2026-04-26 05:45 12.99214 80.12429 2245 ft 77 kts 101°
2026-04-26 05:45 12.99121 80.12921 1965 ft 68 kts 102°
2026-04-26 05:45 12.99085 80.13367 1602 ft 61 kts 108°
2026-04-26 05:45 12.99209 80.13746 1300 ft 55 kts 57°
2026-04-26 05:46 12.99479 80.13974 1026 ft 48 kts 12°
2026-04-26 05:46 12.99742 80.14189 777 ft 48 kts 43°
2026-04-26 05:46 12.99940 80.14497 762 ft 57 kts 56°
2026-04-26 05:46 13.00250 80.14822 639 ft 72 kts 46°
2026-04-26 05:47 13.00562 80.15270 427 ft 87 kts 66°
2026-04-26 05:47 13.00527 80.15903 172 ft 88 kts 123°
2026-04-26 05:47 13.00283 80.16411 98 ft 68 kts 125°
2026-04-26 05:47 13.00103 80.16762 95 ft 42 kts 119°
2026-04-26 05:48 12.99992 80.16971 67 ft 18 kts 98°
2026-04-26 05:48 12.99939 80.17110 233 ft 34 kts 136°
2026-04-26 05:48 12.99804 80.17207 91 ft 16 kts 168°
2026-04-26 05:48 12.99676 80.17215 53 ft 14 kts 185°
2026-04-26 05:49 12.99670 80.17215 49 ft 0 kts 179°
2026-04-26 05:49 12.99663 80.17217 49 ft 0 kts 12°
2026-04-26 05:50 12.99671 80.17221 62 ft 11 kts 342°
2026-04-26 05:50 12.99848 80.17207 127 ft 42 kts 331°
2026-04-26 05:50 12.99968 80.17190 56 ft 11 kts
2026-04-26 05:50 12.99997 80.17207 72 ft 1 kts 47°
2026-04-26 05:51 13.00091 80.17265 50 ft 1 kts 132°
2026-04-26 05:51 13.00103 80.17274 50 ft 0 kts 214°
2026-04-26 05:52 13.00103 80.17276 53 ft 3 kts 79°
2026-04-26 05:52 13.00104 80.17276 50 ft 0 kts 67°